TITAN 3C TRANSTAGE DEB, 26524

Orbit data source: Space-Track

TITAN 3C TRANSTAGE DEB, 26524 is space debris in HEO originally from a launch on Tue, 21 Dec 1965 UTC launched from the Air Force Eastern Test Range (AFETR). Debris objects in space refer to the collection of defunct objects orbiting the Earth. Examples of debris include non-operational satellites, rocket bodies, and fragments generated from explosions, collisions, or faulty payload assembly.

Loading next visibility...
Identifier
26524, 1965-108AK
Orbit
HEO
Last TLE update
3 months ago
Origin
Manufacturer
Unknown
Mission
Spacecraft
Bus & Motor
Unknown
Mass
Unknown
Launch date (UTC)
1965-12-21 (60 years ago)
Launch vehicle
Unknown
Launch site
Air Force Eastern Test Range (AFETR)
Object type
Payload
Rocket body
Debris
Shape & HBR
Unknown
Radar Cross Section
Medium (>0.1 m² and <1 m²)

Expand to show TLE details & history

TLE from 3 months ago
0 TITAN 3C TRANSTAGE DEB
1 26524U 65108AK  25086.02134642  .00000397  00000-0  54272-2 0  9993
2 26524  26.6986 288.2025 6691499 221.9272 352.4697  2.81253545 31267
Epoch: 2025-03-27T00:30Z
TLE epoch observation values (Epoch: 2025-03-27T00:30:44.33Z)
Latitude
2.30892°
Longitude
-88.79903°
Altitude
1,657.466 km
Speed
8.967 km/s
True Right ascension
06h 54m 20s
True Declination
2° 17' 48"
Sunlit
Object was in daylight at epoch
Visualization orbit readout
Latitude
26.11453°
Longitude
132.98899°
Altitude
20,715.799 km
Speed
3.259 km/s
Apparent Right ascension
21h 31m 11s
Apparent Declination
21° 51' 54"
Sunlit
Object is in daylight
Visualization observer readout
Local Sidereal Time
22:22:48
Azimuth
215.111° SW
Elevation
68.875°
Doppler factor
1
Orbital elements
Apogee altitude
29,013.807 km
Perigee altitude
637.068 km
Semi-major axis
21,203.574 km
Eccentricity
0.66915
Inclination
26.6986°
RAAN
288.2025°
Arg. of periapsis
221.9272°
True anomaly
Unknown
Mean anomaly
352.4697°
Eccentric anomaly
Unknown
Mean motion
0.70296 °/min
Orbital period
512.12 mins
BSTAR
0.0054272
Loading maneuver chart data...
Loading SW <> Apogee altitude chart data...

TITAN 3C TRANSTAGE DEB Visibility forecast

Observer location: undefined°, undefined°

Span
Click to sort rows by Start time (UTC) header in descending order
Start Az.
Max El. time (UTC)
Max El. Az.
Max El.
End time (UTC)
End Az.
367 mins2025-07-01 10:44:18.856Z215.065° SW2025-07-01 11:39:18.856Z208.333° SW43.444°2025-07-01 16:51:18.856Z162.299° S
|